Regional Weather Roundup
Issued by NWS

Home | Current Version | Previous Version | Text Only | Print | Product List | Glossary Off
Versions: 1 2 3 4 5 6 7 8 9 10 11 12 13 14 15 16 17 18 19 20 21 22 23 24 25 26 27 28 29 30 31 32 33 34 35 36 37 38 39 40 41 42 43 44 45 46 47 48 49 50

000
ASUS43 KFSD 221602
RWRSD

WEATHER ROUNDUP FOR SOUTH DAKOTA
NATIONAL WEATHER SERVICE SIOUX FALLS SD
1100 AM CDT THU JUN 22 2017

NOTE: "FAIR" INDICATES FEW OR NO CLOUDS BELOW 12,000 FEET WITH NO
SIGNIFICANT WEATHER AND/OR OBSTRUCTIONS TO VISIBILITY.


SDZ001>005-009-010-012>017-221700-
NORTHWEST AND NORTH CENTRAL SOUTH DAKOTA

CITY           SKY/WX    TMP DP  RH WIND       PRES   REMARKS
BUFFALO          N/A     69  41  36 NW15G24   29.88S
FAITH            N/A     65  46  50 N14       29.91R
MOBRIDGE       SUNNY     73  44  35 N15G23    29.82R
$$

SDZ012>016-024>037-041>051-057-063-072>074-221700-
SOUTHWEST AND SOUTH CENTRAL SOUTH DAKOTA

CITY           SKY/WX    TMP DP  RH WIND       PRES   REMARKS
RAPID CTY ARPT CLOUDY    63  45  51 NW23      29.96R
PIERRE         PTSUNNY   65  53  65 N13       29.82R
CUSTER         LGT RAIN  65  45  48 E8G17     30.00R
ELLSWORTH AFB  CLOUDY    62  45  53 N17       29.96R
PHILIP         CLOUDY    67  54  63 N12       29.87S
PINE RIDGE     CLOUDY    68  56  65 NE17G23   29.92R
SPEARFISH      FAIR      57  45  62 W8        30.01F
WINNER         CLOUDY    70  58  65 N9        29.81R
$$

SDZ004>011-016>023-039-040-221700-
NORTHEAST SOUTH DAKOTA

CITY           SKY/WX    TMP DP  RH WIND       PRES   REMARKS
ABERDEEN       CLOUDY    72  49  44 N12       29.78F
WATERTOWN      LGT RAIN  58  54  86 VRB5      29.77R
SISSETON         N/A     67  56  67 NW12      29.76R
$$

SDZ017-020-022-023-036>040-048>070-221700-
SOUTHEAST SOUTH DAKOTA

CITY           SKY/WX    TMP DP  RH WIND       PRES   REMARKS
SIOUX FALLS    CLOUDY    73  64  73 E16       29.70F
HURON          CLOUDY    61  59  93 N13       29.79R
CHAMBERLAIN    CLOUDY    65  60  82 NW13      29.80R
MITCHELL       CLOUDY    68  60  75 N9        29.76R
YANKTON        CLOUDY    76  63  64 E17       29.68S
$$

ABBREVIATIONS USED IN REMARKS
   TC - TEMPERATURE IN CELSIUS
  WCI - WIND CHILL INDEX
   HX - HEAT INDEX
  VSB - VISIBILITY





USA.gov is the U.S. government's official web portal to all federal, state and local government web resources and services.